• In Czech Republic
  • List of Countries
  • For 7 days
  • Water Temperature
  • Satellite Maps
  • Weather Map
  • Weather Widgets
  • user-avatar
    Login

    Hourly Weather Usvica

    Today, 20 September, Thursday

    Time Temperature Precipitation Wind Pressure Humidity
    00:00 +17°C° 0 mm 2 mps 750 mmHg 95%
    01:00 +17°C° 0 mm 2 mps 751 mmHg 95%
    02:00 +16°C° 0 mm 2 mps 751 mmHg 96%
    03:00 +16°C° 0 mm 2 mps 751 mmHg 96%
    04:00 +15°C° 0 mm 2 mps 751 mmHg 96%
    05:00 +15°C° 0 mm 2 mps 751 mmHg 97%
    06:00 +15°C° 0 mm 2 mps 751 mmHg 93%
    07:00 +16°C° 0 mm 2 mps 752 mmHg 89%
    08:00 +17°C° 0 mm 2 mps 752 mmHg 83%
    09:00 +19°C° 0 mm 2 mps 752 mmHg 74%
    10:00 +20°C° 0 mm 2 mps 752 mmHg 66%
    11:00 +22°C° 0 mm 3 mps 752 mmHg 57%
    12:00 +24°C° 0 mm 3 mps 752 mmHg 54%
    13:00 +25°C° 0 mm 3 mps 752 mmHg 50%
    14:00 +26°C° 0 mm 3 mps 752 mmHg 47%
    15:00 +25°C° 0 mm 3 mps 752 mmHg 53%
    16:00 +24°C° 0 mm 2 mps 752 mmHg 58%
    17:00 +23°C° 0 mm 2 mps 752 mmHg 64%
    18:00 +22°C° 0 mm 1 mps 752 mmHg 70%
    19:00 +20°C° 0 mm 1 mps 752 mmHg 76%
    20:00 +19°C° 0 mm 1 mps 752 mmHg 82%
    21:00 +19°C° 0 mm 1 mps 752 mmHg 85%
    22:00 +18°C° 0 mm 1 mps 752 mmHg 88%
    23:00 +17°C° 0 mm 2 mps 752 mmHg 91%

    Tomorrow, 21 September, Friday

    Time Temperature Precipitation Wind Pressure Humidity
    00:00 +17°C° 0 mm 2 mps 752 mmHg 91%
    01:00 +17°C° 0 mm 2 mps 752 mmHg 92%
    02:00 +17°C° 0 mm 2 mps 752 mmHg 93%
    03:00 +16°C° 0 mm 2 mps 752 mmHg 93%
    04:00 +16°C° 0 mm 2 mps 752 mmHg 94%
    05:00 +16°C° 0 mm 2 mps 752 mmHg 94%
    06:00 +17°C° 0 mm 2 mps 752 mmHg 89%
    07:00 +18°C° 0 mm 3 mps 752 mmHg 85%
    08:00 +20°C° 0 mm 3 mps 752 mmHg 81%
    09:00 +21°C° 0 mm 3 mps 752 mmHg 74%
    10:00 +24°C° 0 mm 3 mps 752 mmHg 67%
    11:00 +26°C° 0 mm 3 mps 752 mmHg 60%
    12:00 +26°C° 0 mm 4 mps 752 mmHg 57%
    13:00 +27°C° 0 mm 4 mps 752 mmHg 55%
    14:00 +28°C° 0 mm 4 mps 751 mmHg 52%
    15:00 +27°C° 0 mm 4 mps 751 mmHg 55%
    16:00 +26°C° 0 mm 3 mps 750 mmHg 59%
    17:00 +24°C° 0 mm 3 mps 750 mmHg 62%
    18:00 +22°C° 0 mm 3 mps 750 mmHg 66%
    19:00 +20°C° 0 mm 3 mps 750 mmHg 70%
    20:00 +19°C° 0 mm 3 mps 749 mmHg 74%
    21:00 +19°C° 0 mm 3 mps 749 mmHg 73%
    22:00 +19°C° 0 mm 4 mps 749 mmHg 71%
    23:00 +19°C° 0 mm 4 mps 748 mmHg 70%

    Day after tomorrow, 22 September, Saturday

    Time Temperature Precipitation Wind Pressure Humidity
    00:00 +19°C° 0 mm 4 mps 748 mmHg 69%
    01:00 +17°C° 0 mm 5 mps 747 mmHg 69%
    02:00 +17°C° 0 mm 5 mps 747 mmHg 69%
    03:00 +17°C° 0 mm 5 mps 746 mmHg 68%
    04:00 +17°C° 0 mm 5 mps 746 mmHg 67%
    05:00 +16°C° 0 mm 5 mps 745 mmHg 66%
    06:00 +17°C° 0 mm 6 mps 745 mmHg 65%
    07:00 +17°C° 0 mm 6 mps 745 mmHg 65%
    08:00 +19°C° 0 mm 6 mps 745 mmHg 64%
    09:00 +17°C° 0.1 mm 6 mps 746 mmHg 68%
    10:00 +16°C° 0.1 mm 6 mps 746 mmHg 71%
    11:00 +15°C° 0.1 mm 5 mps 747 mmHg 75%
    12:00 +14°C° 0.3 mm 5 mps 747 mmHg 78%
    13:00 +13°C° 0.3 mm 4 mps 747 mmHg 81%
    14:00 +12°C° 0.3 mm 4 mps 747 mmHg 83%
    15:00 +12°C° 0.3 mm 3 mps 748 mmHg 84%
    16:00 +12°C° 0.3 mm 3 mps 748 mmHg 85%
    17:00 +12°C° 0.3 mm 3 mps 748 mmHg 86%
    18:00 +11°C° 0.1 mm 3 mps 748 mmHg 86%
    19:00 +11°C° 0.1 mm 3 mps 748 mmHg 85%
    20:00 +11°C° 0.1 mm 3 mps 749 mmHg 85%
    21:00 +10°C° 0 mm 3 mps 749 mmHg 86%
    22:00 +10°C° 0 mm 3 mps 748 mmHg 87%
    23:00 +9°C° 0 mm 3 mps 748 mmHg 88%

    23 September, Sunday

    Time Temperature Precipitation Wind Pressure Humidity
    00:00 +9°C° 0 mm 2 mps 748 mmHg 90%
    01:00 +8°C° 0 mm 2 mps 748 mmHg 91%
    02:00 +8°C° 0 mm 2 mps 748 mmHg 93%
    03:00 +7°C° 0 mm 2 mps 748 mmHg 93%
    04:00 +7°C° 0 mm 3 mps 747 mmHg 93%
    05:00 +7°C° 0 mm 3 mps 747 mmHg 93%
    06:00 +8°C° 0 mm 3 mps 747 mmHg 89%
    07:00 +8°C° 0 mm 4 mps 747 mmHg 86%
    08:00 +8°C° 0 mm 4 mps 746 mmHg 82%
    09:00 +10°C° 0 mm 5 mps 746 mmHg 77%
    10:00 +12°C° 0 mm 5 mps 746 mmHg 71%
    11:00 +13°C° 0 mm 6 mps 746 mmHg 66%
    12:00 +13°C° 0.1 mm 6 mps 746 mmHg 65%
    13:00 +13°C° 0.1 mm 6 mps 746 mmHg 65%
    14:00 +13°C° 0.1 mm 6 mps 746 mmHg 65%
    15:00 +13°C° 0.1 mm 5 mps 746 mmHg 66%
    16:00 +13°C° 0.1 mm 4 mps 746 mmHg 68%
    17:00 +12°C° 0.1 mm 4 mps 746 mmHg 70%
    18:00 +11°C° 0 mm 3 mps 746 mmHg 74%
    19:00 +10°C° 0 mm 3 mps 746 mmHg 78%
    20:00 +9°C° 0 mm 3 mps 746 mmHg 82%
    21:00 +9°C° 0 mm 3 mps 745 mmHg 82%
    22:00 +9°C° 0 mm 3 mps 745 mmHg 82%
    23:00 +9°C° 0 mm 3 mps 745 mmHg 82%

    24 September, Monday

    Time Temperature Precipitation Wind Pressure Humidity
    00:00 +9°C° 0 mm 3 mps 744 mmHg 81%
    01:00 +9°C° 0 mm 3 mps 743 mmHg 81%
    02:00 +9°C° 0 mm 3 mps 743 mmHg 80%
    03:00 +8°C° 0.7 mm 4 mps 742 mmHg 83%
    04:00 +8°C° 0.7 mm 4 mps 741 mmHg 87%
    05:00 +8°C° 0.7 mm 5 mps 739 mmHg 91%
    06:00 +8°C° 2.1 mm 5 mps 738 mmHg 91%
    07:00 +8°C° 2.1 mm 6 mps 737 mmHg 92%
    08:00 +8°C° 2.1 mm 6 mps 735 mmHg 92%
    09:00 +9°C° 2 mm 6 mps 734 mmHg 92%
    10:00 +9°C° 2 mm 6 mps 733 mmHg 92%
    11:00 +10°C° 2 mm 6 mps 732 mmHg 92%
    12:00 +11°C° 1.6 mm 6 mps 731 mmHg 92%
    13:00 +13°C° 1.6 mm 6 mps 730 mmHg 92%
    14:00 +14°C° 1.6 mm 6 mps 729 mmHg 92%
    15:00 +11°C° 1.2 mm 6 mps 729 mmHg 91%
    16:00 +10°C° 1.2 mm 7 mps 729 mmHg 89%
    17:00 +9°C° 1.2 mm 8 mps 730 mmHg 88%
    18:00 +7°C° 0.4 mm 9 mps 731 mmHg 86%
    19:00 +6°C° 0.4 mm 10 mps 733 mmHg 85%
    20:00 +6°C° 0.4 mm 10 mps 734 mmHg 84%
    21:00 +5°C° 0.2 mm 10 mps 736 mmHg 83%
    22:00 +5°C° 0.2 mm 9 mps 737 mmHg 82%
    23:00 +5°C° 0.2 mm 8 mps 739 mmHg 81%

    25 September, Tuesday

    Time Temperature Precipitation Wind Pressure Humidity
    00:00 +4°C° 0 mm 8 mps 740 mmHg 80%
    01:00 +4°C° 0 mm 8 mps 741 mmHg 78%
    02:00 +4°C° 0 mm 7 mps 742 mmHg 77%
    03:00 +4°C° 0 mm 7 mps 743 mmHg 77%
    04:00 +3°C° 0 mm 7 mps 744 mmHg 77%
    05:00 +3°C° 0 mm 7 mps 745 mmHg 76%
    06:00 +3°C° 0 mm 7 mps 745 mmHg 73%
    07:00 +4°C° 0 mm 7 mps 746 mmHg 69%
    08:00 +4°C° 0 mm 7 mps 747 mmHg 66%
    09:00 +5°C° 0 mm 7 mps 747 mmHg 60%
    10:00 +6°C° 0 mm 7 mps 748 mmHg 54%
    11:00 +9°C° 0 mm 7 mps 748 mmHg 48%
    12:00 +9°C° 0.1 mm 7 mps 749 mmHg 50%
    13:00 +9°C° 0.1 mm 7 mps 749 mmHg 51%
    14:00 +10°C° 0.1 mm 6 mps 749 mmHg 52%
    15:00 +9°C° 0 mm 5 mps 749 mmHg 55%
    16:00 +10°C° 0 mm 4 mps 749 mmHg 59%
    17:00 +9°C° 0 mm 3 mps 750 mmHg 63%
    18:00 +8°C° 0 mm 3 mps 750 mmHg 68%
    19:00 +7°C° 0 mm 3 mps 750 mmHg 73%
    20:00 +6°C° 0 mm 2 mps 751 mmHg 78%
    21:00 +6°C° 0 mm 2 mps 751 mmHg 81%
    22:00 +5°C° 0 mm 2 mps 751 mmHg 83%
    23:00 +5°C° 0 mm 2 mps 752 mmHg 86%
    Show more